This is the latest recevied weather packets stored in our database for station/object JA7ZQY-10. If no packets are shown the sender has not sent any weather packets the latest 10 day(s).
| Time | Temp. | Humidity | Pressure | Rain* | Wind** | Luminosity | Snow |
|---|---|---|---|---|---|---|---|
| 1787822769 | 24.44° C | 86% | 1005.8 hPa | 0 mm | - | - | - |
| 1787822168 | 23.89° C | 87% | 1006 hPa | 0 mm | - | - | - |
| 1787821569 | 24.44° C | 86% | 1005.9 hPa | 0 mm | - | - | - |
| 1787820968 | 24.44° C | 84% | 1005.5 hPa | 0 mm | - | - | - |
| 1787820368 | 24.44° C | 85% | 1005.3 hPa | 0 mm | - | - | - |
| 1787819769 | 24.44° C | 85% | 1005.5 hPa | 0 mm | - | - | - |
| 1787819168 | 24.44° C | 84% | 1005.7 hPa | 0 mm | - | - | - |
| 1787818569 | 24.44° C | 85% | 1006 hPa | 0 mm | - | - | - |
| 1787817969 | 24.44° C | 86% | 1005.9 hPa | 0 mm | - | - | - |
| 1787817368 | 24.44° C | 87% | 1006.3 hPa | 0 mm | - | - | - |
| 1787816769 | 25° C | 86% | 1006.3 hPa | 0 mm | - | - | - |
| 1787816168 | 25° C | 84% | 1006.4 hPa | 0 mm | - | - | - |
| 1787815569 | 25° C | 83% | 1006.2 hPa | 0 mm | - | - | - |
| 1787814968 | 24.44° C | 87% | 1006.6 hPa | 0 mm | - | - | - |
| 1787814369 | 24.44° C | 88% | 1006.2 hPa | 0 mm | - | - | - |
| 1787813769 | 24.44° C | 88% | 1006.5 hPa | 0.25 mm | - | - | - |
| 1787813168 | 24.44° C | 87% | 1006.7 hPa | 0.25 mm | - | - | - |
| 1787812569 | 25° C | 85% | 1006.4 hPa | 0.25 mm | - | - | - |
| 1787811969 | 25.56° C | 82% | 1006.7 hPa | 0.25 mm | - | - | - |
| 1787811368 | 26.11° C | 82% | 1006.7 hPa | 0.25 mm | - | - | - |
| 1787810768 | 26.11° C | 79% | 1006.4 hPa | 0.25 mm | - | - | - |
| 1787810169 | 26.67° C | 76% | 1006.5 hPa | 0 mm | - | - | - |
| 1787809569 | 26.67° C | 76% | 1006.6 hPa | 0 mm | - | - | - |
| 1787808968 | 26.67° C | 75% | 1006.5 hPa | 0 mm | - | - | - |
| 1787808370 | 27.22° C | 74% | 1006.7 hPa | 0 mm | - | - | - |
* Rain latest hour (hover to see other rain measurements)
** Current wind speed in m/s (hover to see current wind gust speed)